Location: Ammerl�gen
(47.2167°N, 9.6000°E)
Time: 10:55:54
(UTC+00:00)

Nadezhda 1 Rocket - Pass Details

Date: 21 April 2021
Orbit: 941 x 1006 km, 83.0° (Epoch: 06 May)

Event Time Altitude Azimuth Distance (km) Brightness Sun altitude
Exits shadow 23:40:22 81° 78° (ENE) 1,023 4.0 -30.4°
Drops below altitude 10° 23:46:38 10° 11° (N) 2,777 7.3 -30.3°
Sets 23:49:10 0° 10° (N) 3,724 8.2 -30.2°
